www.pogodaiklimat.ru

Погода и климат >> Архив погоды >> Австралия >> Квинсленд >> Остров Лоу


ПОГОДА на Острове Лоу

  • Прогноз погоды на Острове Лоу
  • Монитор погоды на Острове Лоу

АРХИВ ПОГОДЫ на Острове Лоу

Время (UTC), дата Ветер
(напр.,м/с)
 
Видим.   Явления Облачность Т
(С)
Тd
(С)
f
(%)
Тe
(С)
Тes
(С)
Комфортность P
(гПа)
Po
(гПа)
Тmin
(С)
Tmax
(С)
R
(мм)
R24
(мм)
S
(см)
20 11.07 ЮВ 5 н/о н/о +22.1 +18.9 82 +27 +27 душно 1019.2 1018.7
23 11.07 Ю 5 н/о н/о +22.6 +19.4 82 +29 +29 очень
душно
1020.6 1020.1
02 12.07 Ю 7 н/о н/о +21.5 +18.3 82 +26 +26 душно 1019.8 1019.3 +20.2
05 12.07 В 6 н/о в посл. час дождь {туман} н/о +20.4 +18.2 87 +24 +24 комфорт 1017.7 1017.2
08 12.07 ЮВ 7 н/о н/о +22.2 +18.8 81 +28 +28 душно 1018.4 1017.9
11 12.07 ЮВ 7 н/о н/о +22.2 +19.2 83 +28 +28 душно 1019.5 1019.0
14 12.07 Ю 6 н/о н/о +21.7 +18.3 81 +26 +26 душно 1018.8 1018.3 +23.3
17 12.07 Ю 6 н/о н/о +21.4 +17.2 77 +25 +25 комфорт 1017.4 1016.9
20 12.07 ЮЗ 4 н/о н/о +20.9 +16.5 76 +25 +25 комфорт 1018.1 1017.6
23 12.07 Ю 4 н/о н/о +21.6 +16.6 73 +25 +25 комфорт 1019.7 1019.2
02 13.07 ЮВ 7 н/о в посл. час дождь {туман} н/о +24.9 +18.4 67 +29 +29 душно 1018.8 1018.3 +19.7
05 13.07 ЮВ 8 н/о {туман} н/о +25.1 +17.1 61 +29 +29 душно 1016.3 1015.8
08 13.07 ЮВ 8 н/о н/о +22.9 +16.2 66 +27 +27 душно 1016.7 1016.2
11 13.07 ЮВ 7 н/о н/о +22.6 +16.2 67 +27 +27 душно 1018.8 1018.3
14 13.07 Ю 5 н/о н/о +21.8 +14.4 63 +25 +25 комфорт 1018.0 1017.5 +26.0
17 13.07 Ю 4 н/о н/о +21.1 +15.6 71 +24 +24 комфорт 1016.9 1016.4
20 13.07 ЮВ 6 н/о н/о +21.5 +16.2 72 +25 +25 комфорт 1017.1 1016.6
23 13.07 ЮВ 8 н/о н/о +21.9 +16.6 72 +26 +26 душно 1018.9 1018.4
02 14.07 ЮВ 9 н/о н/о +24.4 +16.4 61 +28 +28 душно 1018.0 1017.5 +21.0
05 14.07 ЮВ 9 н/о н/о +24.6 +14.1 52 +27 +27 жарко 1015.9 1015.4
08 14.07 ЮВ 11 н/о н/о +21.9 +16.8 73 +26 +26 душно 1017.2 1016.7
11 14.07 ЮВ 9 н/о н/о +21.8 +16.7 73 +26 +26 душно 1019.6 1019.1
14 14.07 Ю 7 н/о н/о +21.2 +16.6 75 +25 +25 комфорт 1018.9 1018.4 +25.7
17 14.07 ЮВ 8 н/о н/о +20.6 +16.0 75 +23 +23 комфорт 1017.3 1016.8
20 14.07 Ю 7 н/о н/о +20.8 +16.4 76 +24 +24 комфорт 1017.8 1017.3
23 14.07 ЮВ 9 н/о н/о +21.2 +16.0 72 +25 +25 комфорт 1019.8 1019.3
02 15.07 ЮВ 10 н/о н/о +22.9 +15.5 63 +27 +27 душно 1019.3 1018.8 +20.6
05 15.07 ЮВ 10 н/о н/о +22.6 +12.8 54 +25 +25 комфорт 1016.9 1016.4
08 15.07 ЮВ 10 н/о н/о +20.3 +12.8 62 +22 +22 комфорт 1017.3 1016.8
11 15.07 ЮВ 10 н/о н/о +20.5 +13.0 62 +22 +22 комфорт 1018.6 1018.1
14 15.07 Ю 7 н/о н/о +19.8 +12.3 62 +21 +21 комфорт 1018.4 1017.9 +23.7
17 15.07 ЮВ 7 н/о н/о +19.5 +11.0 58 +20 +20 1017.2 1016.7
20 15.07 ЮВ 7 н/о н/о +19.5 +10.0 54 +20 +20 1017.7 1017.2
23 15.07 ЮВ 8 н/о н/о +20.1 +11.1 56 +21 +21 комфорт 1019.8 1019.3
02 16.07 ЮВ 9 н/о н/о +22.3 +13.9 59 +25 +25 комфорт 1018.6 1018.1 +19.4
05 16.07 ЮВ 8 н/о н/о +22.4 +13.7 58 +26 +26 жарко 1017.0 1016.5
08 16.07 ЮВ 7 н/о н/о +21.2 +14.1 64 +24 +24 комфорт 1017.4 1016.9
11 16.07 ЮВ 9 н/о н/о +20.8 +14.5 67 +23 +23 комфорт 1019.1 1018.6
14 16.07 ЮВ 9 н/о н/о +20.1 +14.7 71 +22 +22 комфорт 1018.1 1017.6 +24.2
17 16.07 ЮВ 7 н/о н/о +19.8 +13.7 68 +21 +21 комфорт 1016.6 1016.1
20 16.07 ЮВ 7 н/о н/о +19.7 +14.3 71 +21 +21 комфорт 1017.1 1016.6
23 16.07 ЮВ 7 н/о н/о +20.8 +14.5 67 +23 +23 комфорт 1018.8 1018.3
05 17.07 ЮВ 8 н/о н/о +24.3 +15.5 58 +27 +27 жарко 1015.6 1015.1
08 17.07 В 8 н/о н/о +21.1 +15.2 69 +24 +24 комфорт 1016.2 1015.7
11 17.07 ЮВ 10 н/о н/о +21.0 +15.3 70 +24 +24 комфорт 1017.3 1016.8
14 17.07 ЮВ 8 н/о н/о +20.2 +14.6 70 +22 +22 комфорт 1017.4 1016.9 +24.9
17 17.07 ЮВ 7 н/о н/о +20.2 +13.9 67 +22 +22 комфорт 1016.2 1015.7
20 17.07 ЮВ 8 н/о н/о +19.9 +14.5 71 +21 +21 комфорт 1016.7 1016.2
23 17.07 ЮВ 9 н/о н/о +20.8 +16.0 74 +24 +24 комфорт 1018.6 1018.1
02 18.07 ЮВ 8 н/о н/о +23.9 +16.7 64 +27 +27 жарко 1018.0 1017.5 +19.3
05 18.07 ЮВ 8 н/о н/о +24.2 +15.1 57 +27 +27 жарко 1015.9 1015.4
08 18.07 ЮВ 8 н/о н/о +21.3 +16.5 74 +25 +25 комфорт 1016.2 1015.7
11 18.07 ЮВ 8 н/о н/о +20.9 +16.1 74 +24 +24 комфорт 1017.6 1017.1
17 18.07 Ю 5 н/о н/о +19.8 +15.0 74 +22 +22 комфорт 1017.0 1016.5

 

Местоположение метеостанции Остров Лоу (Квинсленд, Австралия): широта -16.38 долгота 145.57 высота над уровнем моря 4 м.

В архиве по умолчанию представлена погода на Острове Лоу за последнюю неделю. Архивные данные за месяц целиком и за предыдущие месяцы, начиная с января 2011 года, Вы можете получить, выбрав интересующий диапазон дат из раскрывающегося списка и нажав кнопку "Ввод!".


*Определитесь, кто Вы:
робот инопланетянин человек

Внимание! Время в таблицах - всемирное. Для получения местного времени необходимо прибавить поправку, которая равна 10 ч.

Смотрите также архив погоды в соседних городах и на ближайших метеорологических станциях:

Погода в Кэрнсе (Квинсленд, Австралия) (59 км)
Погода на Арлингтон рифе (Квинсленд, Австралия) (70 км)
Погода в Марибе (Квинсленд, Австралия) (78 км)
Погода в Куктауне (Квинсленд, Австралия) (112 км)
Погода в Юг Джонстон (Квинсленд, Австралия) (143 км)
Погода на Мысе Флэттери (Квинсленд, Австралия) (159 км)
Погода в Палмервилле (Квинсленд, Австралия) (166 км)
Погода на Бугенвильском рифе (Квинсленд, Австралия) (192 км)
Погода на Холмс Рифе (Квинсленд, Австралия) (244 км)
Погода в Лусинде (Квинсленд, Австралия) (254 км)

Пояснения к столбцам:

Ветер - указаны скорость ветра в м/с - средняя за 10 мин, порывы в срок и между сроками (в фигурных скобках) и направление, откуда дует ветер: С - северный, СВ - северо-восточный, В - восточный, ЮВ - юго-восточный, Ю - южный, ЮЗ - юго-западный, З - западный, СЗ - северо-западный.
Видимость - горизонтальная дальность видимости в метрах или километрах. При видимости от 1 до 10 км при отсутствии осадков обычно наблюдается дымка, при ухудшении видимости до 1 км и менее - туман. В сухую погоду видимость может ухудшаться дымом, пылью или мглою.
Явления - указаны атмосферные явления, наблюдавшиеся в срок или в последний час перед сроком; фигурными скобками обозначены явления, наблюдавшиеся между сроками (за 1-3 часа до срока); квадратными скобками обозначены град или гололедные отложения с указанием их диаметра в мм.
Облачность - указаны через наклонную черту общая и нижняя облачность в баллах и высота нижней границы облаков в метрах; квадратными скобками обозначены формы облаков: Ci - перистые, Cs - перисто-слоистые, Cc - перисто-кучевые, Ac - высококучевые, As - высокослоистые, Sc - слоисто-кучевые, Ns - слоисто-дождевые, Cu - кучевые, Cb - кучево-дождевые. Подробнее классификацию облаков см. в Атласе облаков (PDF).
T - Температура воздуха - температура, измеренная на высоте 2 м над землей.
Td - Температура точки росы - температура, при понижении до которой содержащийся в воздухе водяной пар достигнет насыщения.
f - Относительная влажность воздуха - влажноcть воздуха, измеренная на высоте 2 м над землей.
Te - Эффективная температура - температура, которую ощущает одетый по сезону человек в тени. Характеристика душности погоды. При расчете учитывается влияние влажности воздуха и скорости ветра на теплоощущения человека.
Tes - Эффективная температура на солнце - температура, которую ощущает человек, с поправкой на солнечный нагрев. Характеристика знойности погоды. Зависит от высоты солнца над горизонтом, облачности и скорости ветра. Ночью, в пасмурную погоду, а также при ветре 12 м/с и более поправка равна нулю.
P - Атмосферное давление - приведенное к уровню моря атмосферное давление.
Po - Атмосферное давление - измеренное на уровне метеостанции атмосферное давление.
Tmin - Минимальная температура - минимум температуры воздуха на высоте 2 м над землей.
Tmax - Максимальная температура - максимум температуры воздуха на высоте 2 м над землей.
R - Количество осадков - Количество выпавших осадков за период времени, мм. При наведении курсора мыши на число - период времени, за который выпало указанное количество осадков.
R24 - Количество осадков - Количество выпавших осадков за 24 часа, мм.
S - Снежный покров - Высота снежного покрова, см. При наведении курсора мыши на число - состояние снежного покрова и степень покрытия местности в баллах.